THOR ABLESTAR DEB, 350

Orbit data source: Space-Track

THOR ABLESTAR DEB, 350 is space debris in LEO originally from a launch on Thu, 29 Jun 1961 UTC launched from the Air Force Eastern Test Range (AFETR). Debris objects in space refer to the collection of defunct objects orbiting the Earth. Examples of debris include non-operational satellites, rocket bodies, and fragments generated from explosions, collisions, or faulty payload assembly.

Loading next visibility...
Identifier
350, 1961-015DQ
Orbit
LEO
Country
Flag of USUS
Related business
Manufacturer
Unknown
Mission
Spacecraft
Bus & Motor
Unknown
Mass
Unknown
Launch date (UTC)
1961-06-29 (64 years ago)
Launch vehicle
Unknown
Launch site
Air Force Eastern Test Range (AFETR)
Object type
Payload
Rocket body
Debris
Shape & HBR
Unknown
Radar Cross Section
Medium (>0.1 m² and <1 m²)

Expand to show TLE details & history
Last TLE update: 16 hours ago

TLE from 16 hours ago
0 THOR ABLESTAR DEB
1 00350U 61015DQ  25242.75456788  .00000366  00000-0  18601-3 0  9990
2 00350  66.9100 254.3074 0124002   5.7500 354.4985 14.22370724321649
Epoch: 2025-08-30T18:06Z
TLE epoch observation values (Epoch: 2025-08-30T18:06:34.664Z)
Latitude
Longitude
3.47865°
Altitude
730.648 km
Speed
7.536 km/s
True Right ascension
16h 57m 13s
True Declination
0° 00' 00"
Sunlit
Object was in daylight at epoch
Visualization orbit readout
Latitude
Unknown
Longitude
Unknown
Altitude
Unknown
Speed
Unknown
Apparent Right ascension
Unknown
Apparent Declination
Unknown
Sunlit
N/A
Visualization observer readout
Local Sidereal Time
01:45:57
Azimuth
Unknown
Elevation
Unknown
Doppler factor
Unknown
Orbital elements
Apogee altitude
904.907 km
Perigee altitude
726.497 km
Semi-major axis
7,193.839 km
Eccentricity
0.0124
Inclination
66.91°
RAAN
254.3074°
Arg. of periapsis
5.75°
True anomaly
354.36014°
Mean anomaly
354.4985°
Eccentric anomaly
354.42953°
Mean motion
3.55715 °/min
Orbital period
101.2 mins
BSTAR
0.00018601
Loading maneuver chart data...
Computing Atmospheric mass density...

Documentation

Showing up to 5 results
|